Погода в Калге

Россия / Забайкальский край     50°55′28″N   118°53′29″E
темп.,
°C
ветер,
м/с
пор.,
м/с
влажн.,
%
обл.,
%
осадки,
мм/ч
давл.,
гПа
погр.,
м
27 февраля, сб
сб2700:00−11юв1495100 0.3 1012219
03:00−12вюв2396100 0.5 1008127
06:00−11всв1197100 1.0 100441
09:00−10ссз4695100 5.4 1005277
12:00−11сз61281100 0.4 1008672
15:00−11сз71177100 0.4 10131039
18:00−12сз51180100 0.0 1019536
21:00−19зсз228465 0.0 102320
28 февраля, вс
вс2800:00−20зсз338713 0.0 102721
03:00−21зсз48746 0.0 1030135
06:00−24зсз33780 0.0 103323
09:00−25з22790 0.0 103625
12:00−18з35670 0.0 1036578
15:00−17зсз46710 0.0 1034981
18:00−19зсз337962 0.0 103657
21:00−25з238455 0.0 103920
1 марта, пн
пн100:00−27з22850 0.0 104120
03:00−28з22850 0.0 104219
06:00−29з22810 0.0 104119
09:00−28зюз11800 0.0 104120
12:00−21ю23800 0.0 1038286
15:00−18ююз358932 0.1 1035378
18:00−21ю339381 0.1 103359
21:00−24юз229369 0.1 103420
2 марта, вт
вт200:00−23ююз2297100 0.0 103224
03:00−25ю22100100 0.0 103120
06:00−26ю22100100 0.1 102919
09:00−26ю22100100 0.1 102757
12:00−22ююв3494100 0.1 1024311
15:00−20ю4596100 0.1 1020403
18:00−22ю2399100 0.0 101853
21:00−25юз12100100 0.1 101920
3 марта, ср
ср300:00−24ююз119999 0.0 101720
03:00−24ююз1199100 0.0 101420
06:00−25юз119898 0.0 101320
09:00−23ююз129550 0.0 101320
12:00−16ю23897 0.0 1010275
15:00−12ю359253 0.4 1009412
18:00−11с1288100 0.4 100877
21:00−14ссв1197100 0.9 101028